EW1423 Weather Reports


Display with metric or nautical units.
time (UTC)temp
F
wind
direction
speed
MPH
gust
MPH
rain 1hr
in
rain 24hr
in
rain mn
in
humidity
%
barometer
mb
20260901095306 73 315 0.0 0.0 0.00 0.00 0.00 60 1021.9
20260901094804 72 328 1.0 5.0 0.00 0.00 0.00 61 1022.3
20260901093804 73 345 0.0 2.0 0.00 0.00 0.00 61 1022.4
20260901093304 73 268 0.0 3.0 0.00 0.00 0.00 61 1022.4
20260901092804 74 301 1.0 5.0 0.00 0.00 0.00 60 1022.4
20260901092305 74 266 1.0 5.0 0.00 0.00 0.00 61 1022.4
20260901091304 72 271 0.0 3.0 0.00 0.00 0.00 64 1022.5
20260901090803 71 284 1.0 5.0 0.00 0.00 0.00 69 1022.5
20260901090304 70 246 0.0 0.0 0.00 0.00 0.00 67 1022.4
20260901085306 70 273 0.0 0.0 0.00 0.00 0.00 69 1022.4
20260901084804 70 46 0.0 3.0 0.00 0.00 0.00 70 1022.4
20260901084303 70 309 1.0 2.0 0.00 0.00 0.00 70 1022.4
20260901083803 70 309 0.0 0.0 0.00 0.00 0.00 72 1022.4
20260901083304 69 53 0.0 0.0 0.00 0.00 0.00 74 1022.4
20260901082804 69 53 0.0 0.0 0.00 0.00 0.00 76 1022.4
20260901082306 69 53 0.0 2.0 0.00 0.00 0.00 75 1022.4
20260901081304 68 95 0.0 0.0 0.00 0.00 0.00 75 1022.3
20260901080803 68 158 0.0 0.0 0.00 0.00 0.00 76 1022.4
20260901080304 68 158 0.0 0.0 0.00 0.00 0.00 75 1022.4
20260901075805 67 158 0.0 1.0 0.00 0.00 0.00 77 1022.4
20260901075307 67 134 0.0 0.0 0.00 0.00 0.00 78 1022.4
20260901074804 67 134 0.0 0.0 0.00 0.00 0.00 77 1022.3
20260901074303 67 134 0.0 0.0 0.00 0.00 0.00 80 1022.3
20260901072803 65 134 0.0 0.0 0.00 0.00 0.00 79 1022.3
20260901072309 65 134 0.0 0.0 0.00 0.00 0.00 82 1022.3
20260901071804 65 134 0.0 0.0 0.00 0.00 0.00 83 1022.2
20260901071305 65 134 0.0 0.0 0.00 0.00 0.00 82 1022.2
20260901070303 64 134 0.0 0.0 0.00 0.00 0.00 84 1022.1
20260901065803 64 134 0.0 0.0 0.00 0.00 0.00 84 1022.1
20260901065305 63 134 0.0 0.0 0.00 0.00 0.00 85 1022.1
20260901064803 63 134 0.0 0.0 0.00 0.00 0.00 86 1022.1
20260901064304 63 134 0.0 0.0 0.00 0.00 0.00 86 1022.1
20260901063804 62 134 0.0 0.0 0.00 0.00 0.00 87 1022.1
20260901063303 62 134 0.0 0.0 0.00 0.00 0.00 87 1022.1
20260901062803 62 134 0.0 0.0 0.00 0.00 0.00 88 1022.1
20260901062309 61 134 0.0 0.0 0.00 0.00 0.00 91 1022.1
20260901061803 60 134 0.0 0.0 0.00 0.00 0.00 93 1022.1
20260901061304 59 134 0.0 0.0 0.00 0.00 0.00 93 1022.1
20260901060804 59 134 0.0 0.0 0.00 0.00 0.00 94 1022.1
20260901060303 58 134 0.0 0.0 0.00 0.00 0.00 95 1022.1
20260901055804 58 134 0.0 0.0 0.00 0.00 0.00 96 1022.1
20260901055306 57 134 0.0 0.0 0.00 0.00 0.00 97 1022.1
20260901054804 57 134 0.0 0.0 0.00 0.00 0.00 96 1022.1
20260901054303 57 134 0.0 0.0 0.00 0.00 0.00 96 1022.1
20260901053803 57 134 0.0 0.0 0.00 0.00 0.00 96 1022.1
20260901053303 57 134 0.0 0.0 0.00 0.00 0.00 97 1022.1
20260901052307 57 134 0.0 0.0 0.00 0.00 0.00 97 1022.1
20260901051804 56 134 0.0 0.0 0.00 0.00 0.00 98 1022.1
20260901051303 56 134 0.0 0.0 0.00 0.00 0.00 98 1022.1
20260901050804 56 136 0.0 0.0 0.00 0.00 0.00 98 1021.8
20260901050303 55 136 0.0 0.0 0.00 0.00 0.00 99 1021.8
20260901045306 55 136 0.0 0.0 0.00 0.00 0.00 99 1021.8
20260901044803 55 136 0.0 0.0 0.00 0.00 0.00 99 1021.8
20260901043804 55 136 0.0 0.0 0.00 0.00 0.00 100 1021.8
20260901043304 55 136 0.0 0.0 0.00 0.00 0.00 100 1021.8
20260901042804 55 136 0.0 0.0 0.00 0.00 0.00 99 1021.8
20260901042306 55 136 0.0 0.0 0.00 0.00 0.00 99 1021.8
20260901041804 55 136 0.0 0.0 0.00 0.00 0.00 99 1021.8
20260901040804 55 136 0.0 0.0 0.00 0.00 0.00 99 1021.8
20260901040303 55 136 0.0 0.0 0.00 0.00 0.00 99 1021.8
20260901035803 55 136 0.0 0.0 0.00 0.00 0.00 99 1021.8
20260901035305 55 136 0.0 0.0 0.00 0.00 0.00 98 1021.8
20260901034804 55 136 0.0 0.0 0.00 0.00 0.00 99 1021.8
20260901033804 55 136 0.0 0.0 0.00 0.00 0.00 98 1021.7
20260901033304 55 136 0.0 0.0 0.00 0.00 0.00 98 1021.7
20260901032306 56 136 0.0 0.0 0.00 0.00 0.00 98 1021.7
20260901031804 56 136 0.0 0.0 0.00 0.00 0.00 97 1021.7
20260901031304 56 136 0.0 0.0 0.00 0.00 0.00 97 1021.7
20260901030803 56 136 0.0 0.0 0.00 0.00 0.00 96 1021.7
20260901030304 56 136 0.0 0.0 0.00 0.00 0.00 96 1021.6
20260901025803 56 136 0.0 0.0 0.00 0.00 0.00 96 1021.6
20260901025306 57 136 0.0 0.0 0.00 0.00 0.00 96 1021.8
20260901024803 57 136 0.0 0.0 0.00 0.00 0.00 96 1021.8
20260901024303 57 136 0.0 0.0 0.00 0.00 0.00 96 1021.7
20260901023304 56 136 0.0 0.0 0.00 0.00 0.00 96 1021.7
20260901022803 56 136 0.0 0.0 0.00 0.00 0.00 96 1021.7
20260901022305 56 136 0.0 0.0 0.00 0.00 0.00 96 1021.7
20260901021803 56 136 0.0 0.0 0.00 0.00 0.00 96 1021.6
20260901021304 57 136 0.0 0.0 0.00 0.00 0.00 95 1021.5
20260901020804 57 136 0.0 0.0 0.00 0.00 0.00 95 1021.5
20260901015803 57 136 0.0 0.0 0.00 0.01 0.00 95 1021.3
20260901015305 57 136 0.0 0.0 0.00 0.01 0.00 96 1021.3
20260901014804 57 136 0.0 0.0 0.00 0.01 0.00 96 1021.3
20260901014304 56 136 0.0 0.0 0.00 0.01 0.00 96 1021.3
20260901013804 56 136 0.0 0.0 0.00 0.01 0.00 96 1021.3
20260901012804 57 136 0.0 0.0 0.00 0.01 0.00 95 1021.3
20260901012306 57 136 0.0 0.0 0.00 0.01 0.00 95 1021.3
20260901011804 57 136 0.0 0.0 0.00 0.01 0.00 95 1021.3
20260901011304 57 136 0.0 0.0 0.00 0.01 0.00 94 1021.3
20260901010804 57 136 0.0 0.0 0.00 0.02 0.00 95 1021.3
20260901010303 56 101 0.0 0.0 0.00 0.02 0.00 96 1021.3
20260901005804 56 66 0.0 0.0 0.00 0.02 0.00 96 1021.3
20260901005306 56 66 0.0 0.0 0.00 0.02 0.00 95 1021.3
20260901004304 57 66 0.0 0.0 0.00 0.02 0.00 95 1021.1
20260901003804 57 66 0.0 0.0 0.00 0.03 0.00 95 1021.1
20260901002305 57 66 0.0 0.0 0.00 0.07 0.00 94 1021.1
20260901001304 58 66 0.0 0.0 0.00 0.19 0.00 93 1021.1
20260901000803 58 66 0.0 0.0 0.00 0.20 0.00 93 1021.1
20260901000304 58 66 0.0 0.0 0.00 0.20 0.00 93 1021.1
20260831235804 57 66 0.0 0.0 0.00 0.20 0.00 93 1021.0
20260831235306 57 66 0.0 0.0 0.00 0.20 0.00 94 1021.0
20260831234804 57 66 0.0 0.0 0.00 0.20 0.00 94 1021.0
20260831234304 57 66 0.0 0.0 0.00 0.20 0.00 94 1021.1
20260831233304 57 66 0.0 0.0 0.00 0.20 0.00 93 1021.1
20260831232803 58 66 0.0 0.0 0.00 0.20 0.00 93 1021.1
20260831232305 58 66 0.0 0.0 0.00 0.20 0.00 93 1021.1
20260831231803 58 66 0.0 0.0 0.00 0.20 0.00 93 1021.1
20260831231304 58 66 0.0 0.0 0.00 0.20 0.00 93 1021.1
20260831230804 58 66 0.0 0.0 0.00 0.20 0.00 93 1021.1
20260831230303 59 66 0.0 0.0 0.00 0.20 0.00 92 1021.1
20260831225306 58 66 0.0 0.0 0.00 0.20 0.00 91 1021.1
20260831224803 59 66 0.0 0.0 0.00 0.20 0.00 91 1021.1
20260831224304 59 66 0.0 0.0 0.00 0.20 0.00 90 1021.1
20260831223804 59 66 0.0 0.0 0.00 0.20 0.00 91 1020.8
20260831222803 59 66 0.0 0.0 0.00 0.20 0.00 90 1020.8
20260831222306 59 66 0.0 0.0 0.00 0.20 0.00 90 1020.8
20260831221804 59 66 0.0 0.0 0.00 0.20 0.00 90 1020.8
20260831221304 59 66 0.0 0.0 0.00 0.20 0.00 89 1020.8
20260831220810 60 66 0.0 0.0 0.00 0.20 0.00 88 1020.8
20260831220304 60 66 0.0 0.0 0.00 0.20 0.00 88 1020.8
20260831215804 60 66 0.0 0.0 0.00 0.20 0.20 88 1020.8
20260831215306 60 66 0.0 0.0 0.00 0.20 0.20 87 1020.8
20260831214804 60 66 0.0 0.0 0.00 0.20 0.20 88 1020.5
20260831214304 60 66 0.0 0.0 0.00 0.20 0.20 89 1020.5
20260831213804 60 66 0.0 0.0 0.00 0.20 0.20 89 1020.5
20260831212306 60 66 0.0 0.0 0.00 0.20 0.20 88 1020.5
20260831211804 60 66 0.0 0.0 0.00 0.20 0.20 88 1020.5
20260831211304 60 66 0.0 0.0 0.00 0.20 0.20 88 1020.5
20260831210804 60 66 0.0 0.0 0.00 0.20 0.20 88 1020.5
20260831210303 60 66 0.0 0.0 0.00 0.20 0.20 88 1020.5
20260831205305 60 66 0.0 0.0 0.00 0.20 0.20 88 1020.4
20260831204804 60 66 0.0 0.0 0.00 0.20 0.20 87 1019.9
20260831204303 60 66 0.0 0.0 0.00 0.20 0.20 87 1019.9
20260831203803 60 66 0.0 0.0 0.00 0.20 0.20 86 1019.9
20260831203303 61 66 0.0 0.0 0.00 0.20 0.20 86 1019.9
20260831202803 61 66 0.0 0.0 0.00 0.20 0.20 85 1019.9
20260831202306 62 66 0.0 0.0 0.00 0.20 0.20 84 1019.9
20260831201804 62 66 0.0 0.0 0.00 0.20 0.20 82 1019.9
20260831201303 63 66 0.0 0.0 0.00 0.20 0.20 80 1019.9
20260831200803 63 66 0.0 0.0 0.00 0.20 0.20 78 1019.9
20260831195803 64 66 0.0 0.0 0.00 0.20 0.20 77 1019.9
20260831195306 64 66 0.0 0.0 0.00 0.20 0.20 76 1019.8
20260831194803 65 306 0.0 0.0 0.00 0.20 0.20 75 1019.8
20260831194303 65 226 0.0 0.0 0.00 0.20 0.20 75 1019.8
20260831193803 65 226 0.0 0.0 0.00 0.20 0.20 75 1019.8
20260831193304 65 226 0.0 0.0 0.00 0.20 0.20 74 1019.7
20260831192803 66 226 0.0 1.0 0.00 0.20 0.20 73 1019.7
20260831192305 66 177 1.0 5.0 0.00 0.20 0.20 72 1019.7
20260831191304 66 269 0.0 5.0 0.00 0.20 0.20 73 1019.7
20260831190804 67 320 2.0 9.0 0.00 0.20 0.20 72 1019.7
20260831190304 67 268 1.0 7.0 0.00 0.20 0.20 72 1019.7
20260831185306 67 257 2.0 9.0 0.00 0.20 0.20 73 1019.5
20260831184804 67 221 0.0 2.0 0.00 0.20 0.20 73 1018.5
20260831183804 67 327 0.0 5.0 0.00 0.20 0.20 73 1018.5
20260831183303 67 270 1.0 5.0 0.00 0.20 0.20 73 1018.5
20260831182804 67 0 0.0 3.0 0.00 0.20 0.20 73 1018.5
20260831182305 67 255 1.0 7.0 0.00 0.20 0.20 74 1018.5
20260831181804 68 313 1.0 3.0 0.00 0.20 0.20 74 1018.5
20260831180804 68 269 0.0 1.0 0.00 0.20 0.20 73 1018.5
20260831180304 67 223 0.0 5.0 0.00 0.20 0.20 74 1018.5
20260831175805 67 296 0.0 0.0 0.00 0.20 0.20 77 1018.5
20260831175306 68 296 0.0 0.0 0.00 0.20 0.20 76 1018.5
20260831174804 68 305 0.0 5.0 0.00 0.20 0.20 76 1018.7
20260831174303 68 257 1.0 6.0 0.00 0.20 0.20 74 1018.7
20260831173803 68 292 1.0 6.0 0.00 0.20 0.20 73 1018.7
20260831173304 68 294 1.0 6.0 0.00 0.20 0.20 74 1017.9
20260831172804 68 301 0.0 1.0 0.00 0.20 0.20 74 1017.9
20260831172306 69 280 0.0 2.0 0.00 0.20 0.20 73 1017.9
20260831171804 69 271 0.0 1.0 0.00 0.20 0.20 71 1017.9
20260831171304 69 284 0.0 2.0 0.00 0.20 0.20 71 1017.9
20260831170803 69 220 0.0 0.0 0.00 0.20 0.20 72 1017.9
20260831165804 69 281 0.0 0.0 0.00 0.20 0.20 71 1017.7
20260831165305 69 309 0.0 2.0 0.00 0.20 0.20 71 1017.7
20260831164803 69 258 0.0 2.0 0.00 0.20 0.20 71 1017.4
20260831164304 69 303 1.0 5.0 0.00 0.20 0.20 70 1017.4
20260831163803 70 295 0.0 6.0 0.00 0.20 0.20 69 1017.4
20260831163304 70 273 1.0 8.0 0.00 0.20 0.20 67 1017.4
20260831162804 71 333 2.0 9.0 0.00 0.20 0.20 64 1017.4
20260831161804 74 301 0.0 3.0 0.00 0.20 0.20 59 1017.4
20260831160303 74 290 0.0 13.0 0.00 0.20 0.20 61 1017.2
20260831155306 75 256 2.0 7.0 0.00 0.20 0.20 58 1017.2
20260831154804 77 272 2.0 5.0 0.00 0.20 0.20 56 1017.2
20260831154303 77 287 0.0 5.0 0.00 0.20 0.20 55 1017.2
20260831153803 77 284 2.0 7.0 0.00 0.20 0.20 55 1017.2
20260831152804 77 334 1.0 7.0 0.00 0.20 0.20 56 1016.7
20260831152306 77 285 0.0 5.0 0.00 0.20 0.20 55 1016.7
20260831151803 76 279 0.0 5.0 0.00 0.20 0.20 56 1016.7
20260831150803 74 275 1.0 6.0 0.00 0.20 0.20 58 1016.7
20260831150304 74 239 1.0 7.0 0.00 0.20 0.20 57 1016.7
20260831145803 75 258 2.0 9.0 0.00 0.20 0.20 57 1016.7
20260831145306 75 308 1.0 6.0 0.00 0.20 0.20 58 1016.7
20260831144804 75 302 1.0 7.0 0.00 0.20 0.20 56 1016.7
20260831144303 76 192 2.0 10.0 0.00 0.20 0.20 54 1016.7
20260831143804 78 336 1.0 7.0 0.00 0.20 0.20 53 1016.7
20260831143303 78 305 1.0 5.0 0.00 0.20 0.20 54 1016.9
20260831142803 77 247 1.0 10.0 0.00 0.20 0.20 53 1016.9
20260831142306 77 267 1.0 12.0 0.00 0.20 0.20 52 1016.9
20260831141804 77 267 0.0 3.0 0.00 0.20 0.20 52 1016.9
20260831141304 76 291 0.0 5.0 0.00 0.20 0.20 55 1016.9
20260831140803 76 106 1.0 3.0 0.00 0.20 0.20 54 1016.9
20260831140304 76 228 1.0 5.0 0.00 0.20 0.20 52 1016.9
20260831135804 77 333 1.0 8.0 0.00 0.20 0.20 53 1016.9
20260831134803 75 222 2.0 5.0 0.00 0.20 0.20 54 1017.0
20260831133803 76 322 1.0 7.0 0.00 0.20 0.20 54 1017.0
20260831133304 77 260 1.0 6.0 0.00 0.20 0.20 53 1017.0
20260831132803 77 299 2.0 9.0 0.00 0.20 0.20 51 1017.0
20260831132306 78 285 2.0 7.0 0.00 0.20 0.20 52 1017.0
20260831131804 78 287 2.0 6.0 0.00 0.20 0.20 52 1017.0
20260831131305 77 226 1.0 5.0 0.00 0.20 0.20 52 1017.2
20260831130803 78 274 0.0 3.0 0.00 0.20 0.20 51 1017.2
20260831130304 79 240 2.0 8.0 0.00 0.20 0.20 51 1017.4
20260831125306 77 284 3.0 8.0 0.00 0.20 0.20 51 1017.4
20260831124803 77 317 2.0 9.0 0.00 0.20 0.20 54 1017.4
20260831124303 77 126 1.0 5.0 0.00 0.20 0.20 54 1017.4
20260831123804 77 353 1.0 10.0 0.00 0.20 0.20 53 1017.4
20260831123303 77 119 3.0 10.0 0.00 0.20 0.20 52 1017.4
20260831122803 77 43 2.0 12.0 0.00 0.20 0.20 52 1017.4
20260831122306 78 313 1.0 6.0 0.00 0.20 0.20 53 1017.4
20260831120804 76 319 2.0 12.0 0.00 0.20 0.20 58 1017.4
20260831120303 76 268 2.0 9.0 0.00 0.20 0.20 58 1017.4
20260831115803 75 200 0.0 3.0 0.00 0.20 0.20 61 1017.4
20260831115306 74 264 1.0 6.0 0.00 0.20 0.20 59 1017.4
20260831114804 75 328 1.0 10.0 0.00 0.20 0.20 58 1017.4
20260831114303 76 88 1.0 5.0 0.00 0.20 0.20 56 1017.4
20260831113803 77 307 2.0 12.0 0.00 0.20 0.20 56 1017.4
20260831113304 76 286 1.0 6.0 0.00 0.20 0.20 57 1017.5
20260831112804 76 321 2.0 10.0 0.00 0.20 0.20 57 1017.5
20260831112307 74 314 3.0 9.0 0.00 0.20 0.20 59 1017.5
20260831111803 74 246 0.0 7.0 0.00 0.20 0.20 60 1017.5
20260831111303 75 276 2.0 13.0 0.00 0.20 0.20 58 1017.5
20260831110803 77 275 2.0 8.0 0.00 0.20 0.20 57 1017.5
20260831110303 77 256 3.0 10.0 0.00 0.20 0.20 55 1017.5
20260831105306 75 333 1.0 13.0 0.00 0.20 0.20 60 1017.7
20260831104805 75 342 2.0 10.0 0.00 0.20 0.20 60 1017.7
20260831104304 76 298 1.0 7.0 0.00 0.20 0.20 59 1017.6
20260831103304 76 297 3.0 9.0 0.00 0.20 0.20 58 1017.6
20260831102804 77 326 2.0 5.0 0.00 0.20 0.20 61 1017.6
20260831102306 76 271 1.0 8.0 0.00 0.20 0.20 59 1017.6
20260831101804 76 332 1.0 7.0 0.00 0.20 0.20 62 1017.6
20260831101303 77 284 2.0 10.0 0.00 0.20 0.20 59 1017.6
20260831100804 77 294 1.0 6.0 0.00 0.20 0.20 59 1017.6
20260831100303 76 119 0.0 6.0 0.00 0.20 0.20 65 1017.6
20260831095804 75 8 1.0 9.0 0.00 0.20 0.20 61 1017.7